Location: L�gaud
(45.7115°N, 1.7775°E)
Time: 14:20:21
(UTC+00:00)

SJ-6B - Pass Details

Date: 03 March 2021
Orbit: 509 x 581 km, 97.6° (Epoch: 15 April)

Event Time Altitude Azimuth Distance (km) Brightness Sun altitude
Exits shadow 19:23:03 36° 132° (SE) 915 3.5 -18.3°
Maximum altitude 19:24:25 56° 73° (ENE) 687 2.9 -18.5°
Drops below altitude 10° 19:28:24 10° 356° (N) 1,876 5.7 -19.2°
Sets 19:30:34 0° 352° (N) 2,768 6.7 -19.6°
